Location: Cussy
(47.0410°N, 4.6412°E)
Time: 20:54:18
(UTC+00:00)

ERS-2 - Pass Details

Date: 30 November 2020
Orbit: 492 x 498 km, 98.6° (Epoch: 27 January)

Event Time Altitude Azimuth Distance (km) Brightness Sun altitude
Exits shadow 18:31:20 20° 331° (NNW) 1,209 4.3 -26.0°
Maximum altitude 18:32:50 27° 294° (WNW) 1,002 4.2 -26.2°
Drops below altitude 10° 18:35:57 10° 236° (SW) 1,702 5.6 -26.8°
Sets 18:38:13 0° 223° (SW) 2,580 6.4 -27.2°
